SCP
0 0 0 0 0 0 0 0 0 0 0 0 0 0 0 -0 0 0 0 0 0 0 0 0 0 0 0 0 0 0 0 0 0 0 0 0 0 0 0 0 0 0 0 0
0 0 0 0 0 0 0 0 0 0 0 0 0 0 0 0 0 0 0 0 0 0 0 0 0 0 0 0 0 0 0 0 0 0 0 0 0 0 0 0 0 0 0 0
0 0 0 0 0 0 0 0 0 0 0 0 0 0 0 0 0 0 0 0 0 0 0 0 0 0 0 0 0 0 0 0 0 0 0 0 0 0 0 0 0 0 0 0
0 0 0 0 0 0 0 0 0 0 0 0 0 0 0 0 0 0 0 0 0 0 0 0 0 0 0 0 0 0 0 0 0 0 0 0 0 0 0 0 0 0 0 0
0 0 0 0 0 0 0 0 0 0 0 0 0 0 0 0 0 0 0 0 0 0 0 0 0 0 0 0 0 0 0 0 0 0 0 0 0 0 0 0 0 0 0 0
0 0 0 0 0 0 0 0 0 0 0 0 0 0 0 0 0 0 0 0 0 0 0 0 0 0 0 0 0 0 0 0 0 0 0 0 0 0 0 0 0 0 0 0
0 0 0 0 0 0 0 0 0 0 0 0 0 0 0 0 0 0 0 0 0 0 0 0 0 0 0 0 0 0 0 0 0 0 0 0 0 0 0 0 0 0 0 0
0 0 0 0 0 0 0 0 0 0 0 0 0 0 0 0 0 0 0 0 0 0 0 0 0 0 0 0 0 0 0 0 0 0 0 0 0 0 0 0 0 0 0 0
0 0 0 0 0 0 0 0 0 0 0 0 0 0 0 0 0 0 0 0 0 0 0 0 0 0 0 0 0 0 0 0 0 0 0 0 0 0 0 0 0 0 0 0
0 0 0 0 0 0 0 0 0 0 0 0 0 0 0 0 0 0 0 0 0 0 0 0 0 0 0 0 0 0 0 0 0 0 0 0 0 0 0 0 0 0 0 0
0 0 0 0 0 0 0 0 0 0 0 0 0 0 0 0 0 0 0 0 0 0 0 0 0 0 0 0 0 0 0 0 0 0 0 0 0 0 0 0 0 0 0 0
0 0 0 0 0 0 0 0 0 0 0 0 0 0 0 0 0 0 0 0 0 0 0 0 0 0 0 0 0 0 0 0 0 0 0 0 0 0 0 0 0 0 0 0
0 0 0 0 0 0 0 0 0 0 0 0 0 0 0 0 0 0 0 0 0 0 0 0 0 0 0 0 0 0 0 0 0 0 0 0 0 0 0 0 0 0 0 0
0 0 0 0 0 0 0 0 0 0 0 0 0 0 0 0 0 0 0 0 0 0 0 0 0 0 0 0 0 0 0 0 0 0 0 0 0 0 0 0 0 0 0 0
0 0 0 0 0 0 0 0 0 0 0 0 0 0 0 0 0 0 0 0 0 0 0 0 0 0 0 0 0 0 0 0 0 0 0 0 0 0 0 0 0 0 0 0
0 0 0 0 0 0 0 0 0 0 0 0 0 0 0 0 0 0 0 0 0 0 0 0 0 0 0 0 0 0 0 0 0 0 0 0 0 0 0 0 0 0 0 0
0 0 0 0 0 0 0 0 0 0 0 0 0 0 0 0 0 0 0 0 0 0 0 0 0 0 0 0 0 0 0 0 0 0 0 0 0 0 0 0 0 0 0 0
0 0 0 0 0 0 0 0 0 0 0 0 0 0 0 0 0 0 0 0 0 0 0 0 0 0 0 0 0 0 0 0 0 0 0 0 0 0 0 0 0 0 0 0
0 0 0 0 0 0 0 0 0 0 0 0 0 0 0 0 0 0 0 0 0 0 0 0 0 0 0 0 0 0 0 0 0 0 0 0 0 0 0 0 0 0 0 0
0 0 0 0 0 0 0 0 0 0 0 0 0 0 0 0 0 0 0 0 0 0 0 0 0 0 0 0 0 0 0 0 0 0 0 0 0 0 0 0 0 0 0 0
0 0 0 0 0 0 0 0 0 0 0 0 0 0 0 0 0 0 0 0 0 0 0 0 0 0 0 0 0 0 0 0 0 0 0 0 0 0 0 0 0 0 0 0
0 0 0 0 0 0 0 0 0 0 0 0 0 0 0 0 0 0 0 0 0 0 0 0 0 0 0 0 0 0 0 0 0 0 0 0 0 0 0 0 0 0 0 0
0 0 0 0 0 0 0 0 0 0 0 0 0 0 0 0 0 0 0 0 0 0 0 0 0 0 0 0 0 0 0 0 0 0 0 0 0 0 0 0 0 0 0 0
0 0 0 0 0 0 0 0 0 0 0 0 0 0 0 0 0 0 0 0 0 0 0 0 0 0 0 0 0 0 0 0 0 0 0 0 0 0 0 0 0 0 0 0
0 0 0 0 0 0 0 0 0 0 0 0 0 0 0 0 0 0 0 0 0 0 0 0 0 0 0 0 0 0 0 0 0 0 0 0 0 0 0 0 0 0 0 0
0 0 0 0 0 0 0 0 0 0 0 0 0 0 0 0 0 0 0 0 0 0 0 0 0 0 0 0 0 0 0 0 0 0 0 0 0 0 0 0 0 0 0 0
Wind_Speed_500mb
36 24 39 44 38 34 29 29 33 22 10 15 31 32 32 31 24 25 30 36 36 37 33 40 46 48 49 48 49 50 50 48 49 52 52 50 46 46 49 48 46 44 42 42
21 41 36 32 35 28 18 25 28 8 5 8 19 29 29 33 41 42 39 37 39 37 39 43 48 53 57 54 53 51 52 52 54 53 48 48 45 46 47 48 49 46 45 44
33 10 39 33 35 34 33 28 26 15 11 9 13 35 39 41 47 44 44 45 44 43 42 46 51 57 58 62 60 57 57 56 58 56 51 49 48 51 50 52 50 48 47 46
29 17 27 27 40 41 36 18 7 13 10 13 6 11 9 21 25 28 42 44 47 44 42 42 49 55 62 62 61 62 62 62 61 57 54 54 52 50 46 47 45 45 45 46
18 16 24 37 42 38 28 22 18 11 9 8 14 10 12 12 21 23 24 26 31 35 39 42 46 52 58 60 65 64 65 67 66 62 60 59 55 50 50 48 47 46 45 46
6 1 16 23 18 25 26 19 12 7 10 14 27 18 13 13 11 17 15 10 11 18 24 38 40 42 50 57 64 66 68 70 70 67 65 62 59 58 57 53 49 49 47 47
16 11 4 5 15 10 28 31 11 11 12 15 5 10 26 7 7 13 11 7 3 7 15 18 30 51 52 58 64 69 71 72 72 72 71 66 64 62 60 58 53 51 52 51
21 16 26 24 22 21 46 38 12 14 10 15 3 15 8 3 2 2 5 3 6 7 9 12 21 31 40 48 61 69 73 74 74 72 70 68 66 66 64 61 58 55 55 52
24 19 15 8 2 17 35 29 4 10 4 2 11 12 11 8 10 13 13 15 15 13 12 8 9 18 25 33 45 57 65 66 67 67 66 66 67 67 65 64 61 60 58 56
10 10 11 6 2 6 17 18 11 6 12 10 10 11 13 22 22 15 18 18 17 16 16 16 14 10 11 13 19 29 41 49 55 62 64 64 65 65 65 65 64 61 60 60
7 2 9 11 20 30 11 15 14 9 5 6 4 8 8 32 28 23 19 16 16 15 16 19 20 17 13 9 9 15 24 31 38 44 50 56 59 62 64 65 63 62 61 62
13 7 10 23 6 6 16 31 30 13 12 5 2 3 15 29 26 25 23 18 13 13 14 17 19 19 18 16 11 8 8 12 19 26 33 41 48 53 57 60 61 63 65 65
22 10 10 6 6 3 13 19 30 21 2 13 8 3 11 27 24 21 21 13 11 13 14 14 15 17 18 17 16 14 10 4 2 8 14 22 29 37 43 48 53 58 62 65
34 11 26 26 8 16 21 31 22 35 17 11 20 12 19 25 23 20 18 13 12 13 15 14 14 15 15 15 14 12 10 7 5 3 4 8 14 20 27 32 38 45 51 58
17 14 14 22 4 7 17 32 29 39 40 28 17 17 34 39 31 28 25 20 18 16 16 16 17 18 18 17 17 15 12 9 7 6 7 10 16 21 26 31 35 39 44 49
5 3 13 6 11 2 7 16 35 38 32 38 3 14 2 34 37 29 26 25 23 20 20 21 22 23 22 21 20 19 16 14 12 12 12 13 16 20 24 29 33 39 45 50
17 11 7 37 15 5 10 26 31 30 33 40 32 18 10 32 34 39 34 32 30 27 27 24 22 19 17 15 13 12 11 11 12 13 14 17 20 24 27 31 34 38 41 44
14 15 4 6 11 15 21 9 28 37 34 38 39 18 26 31 37 36 34 42 37 35 30 25 21 16 11 9 7 7 8 11 14 18 21 25 28 30 32 34 37 39 42 44
16 8 7 9 20 8 22 17 17 22 24 29 32 19 25 37 30 12 27 31 36 37 31 23 17 12 6 2 5 8 12 15 19 22 25 28 31 34 36 37 38 40 42 44
9 23 10 14 10 23 14 15 39 12 23 35 51 36 32 42 20 17 42 46 44 37 30 22 14 7 1 3 6 9 13 16 20 23 25 28 31 34 37 40 42 43 44 45
13 6 21 16 12 12 10 16 36 21 10 30 69 62 51 29 21 49 62 47 41 34 27 20 14 10 7 7 8 11 14 16 19 21 23 26 29 33 36 39 42 44 44 44
20 18 10 7 12 19 22 23 24 4 5 9 31 60 61 39 35 63 64 53 42 33 27 20 14 11 10 11 13 14 16 17 17 20 22 26 30 33 36 39 39 41 42 42
16 17 13 19 12 6 44 2 31 10 9 6 25 41 62 60 66 66 57 47 37 29 23 18 13 10 11 13 14 15 18 19 18 18 21 24 28 31 33 34 35 37 36 36
9 3 7 5 14 8 32 24 18 10 13 21 39 55 60 67 68 62 52 43 35 26 18 11 8 6 8 11 12 13 13 15 17 18 20 23 24 25 26 29 30 32 33 33
5 20 11 7 3 1 14 33 23 23 32 46 51 56 64 68 59 53 47 37 27 18 12 7 3 2 3 5 7 9 12 14 16 16 16 19 22 24 24 25 27 25 27 29
13 11 14 12 23 15 18 51 43 47 57 61 68 63 59 53 51 43 36 29 22 15 9 8 7 4 2 3 5 10 11 12 12 13 14 17 19 21 23 23 22 23 24 26
Wind_Direction_500mb
195 205 211 207 211 226 248 221 231 223 105 237 233 245 244 201 203 222 223 221 216 216 209 204 202 206 205 208 210 212 214 214 214 215 214 217 220 224 226 230 233 237 238 238
180 223 215 222 213 222 239 221 229 101 174 231 253 251 253 244 236 225 229 224 223 220 209 202 206 208 214 216 215 217 218 218 220 223 222 222 225 230 233 236 237 239 240 241
206 217 221 218 213 211 217 227 227 250 167 226 287 271 249 238 235 229 232 232 227 219 214 205 205 212 217 217 220 222 223 222 224 224 224 224 226 230 232 236 238 239 241 243
231 210 213 199 214 211 212 212 224 174 198 246 207 285 207 222 206 224 224 226 228 226 222 214 212 212 218 224 225 224 224 226 229 228 229 232 234 238 241 245 247 247 245 246
190 193 193 213 213 211 227 165 181 177 222 299 207 255 240 162 213 207 214 223 227 228 225 219 215 222 222 226 227 229 227 229 232 231 233 234 237 240 245 244 245 245 246 246
218 50 223 219 212 203 138 134 135 161 223 247 236 227 257 202 181 161 179 199 227 225 223 219 213 220 223 225 227 229 229 232 232 234 235 236 238 240 242 247 247 249 251 251
185 185 168 208 149 155 184 170 175 207 213 238 61 224 261 183 248 282 264 275 252 199 200 215 219 218 217 222 227 229 230 230 233 233 236 237 239 242 245 249 251 253 255 257
176 205 181 186 210 193 197 191 177 197 206 212 110 225 234 23 331 283 207 172 123 127 179 212 218 217 219 221 230 230 229 228 231 234 236 238 240 244 249 251 254 255 259 261
191 188 144 184 247 189 199 216 205 108 59 195 200 243 263 159 134 139 125 125 109 93 96 122 171 201 213 225 229 229 228 228 233 237 238 238 241 244 249 253 254 256 259 261
218 161 199 121 199 259 218 165 183 227 174 220 195 257 221 179 166 151 138 122 105 93 85 85 96 133 177 203 216 221 224 229 235 241 241 240 243 246 249 251 254 257 259 261
221 32 135 154 210 184 167 189 208 227 223 253 210 234 331 172 163 154 137 120 105 91 83 83 84 86 102 132 170 199 215 224 232 239 239 240 242 246 249 252 254 257 259 261
162 110 149 198 58 11 248 213 199 201 190 233 341 262 319 151 152 146 139 127 106 98 96 89 85 88 87 89 103 132 186 216 230 238 240 243 246 250 252 254 256 258 259 261
171 179 112 172 231 217 219 206 217 219 36 193 161 165 329 140 145 148 144 129 111 105 101 96 95 91 90 86 83 80 78 75 259 257 255 256 257 259 262 263 263 264 265 266
167 171 197 202 216 162 206 208 217 213 215 170 225 147 178 170 167 164 161 145 127 122 116 110 106 101 97 94 90 83 72 61 36 6 310 288 278 273 272 271 270 268 268 267
182 200 211 207 26 314 213 200 194 211 218 214 216 204 188 184 173 169 162 152 146 139 129 129 121 111 100 94 87 78 67 56 37 5 331 303 290 285 282 281 279 277 274 274
219 239 175 186 233 246 260 238 205 220 219 233 160 239 231 172 170 168 171 163 161 154 145 135 127 119 111 102 94 84 73 59 41 23 3 339 320 308 301 296 292 288 286 283
163 139 147 231 181 327 273 227 220 224 221 223 222 216 177 170 183 183 172 169 167 163 155 148 138 127 115 101 87 72 55 37 19 4 347 333 324 317 310 306 302 298 294 290
151 134 131 147 120 230 246 223 221 224 227 220 232 183 175 184 178 168 179 168 165 167 162 155 148 136 118 96 66 33 6 349 340 335 330 326 322 321 320 318 314 310 305 300
187 128 190 196 206 298 258 208 187 187 239 226 223 201 171 137 131 144 164 167 167 167 164 157 153 149 140 67 353 340 335 330 327 324 322 322 322 322 320 318 316 314 311 308
202 165 183 174 200 212 251 226 180 150 266 204 207 200 158 156 184 174 168 173 169 167 164 162 160 162 174 322 322 321 320 320 320 318 319 319 320 321 320 319 318 316 312 310
165 139 203 180 214 268 210 155 154 186 244 224 199 197 170 189 207 167 168 163 168 165 162 163 172 189 214 245 271 286 293 299 305 307 310 312 314 315 316 317 316 317 316 314
168 170 185 171 218 252 139 145 185 257 301 251 207 192 183 184 157 160 163 162 164 166 168 177 189 207 233 257 272 284 294 303 308 310 314 318 318 318 317 316 316 316 316 319
195 197 181 203 204 104 182 83 219 291 256 157 151 166 169 160 150 156 153 158 163 170 175 182 195 226 259 284 300 309 314 318 319 318 317 319 322 324 326 329 329 329 330 335
203 178 204 137 204 193 193 224 211 242 213 173 165 163 167 151 152 153 158 161 168 173 179 194 222 263 299 315 321 324 327 329 331 334 334 336 339 344 345 347 348 347 347 349
143 154 171 272 233 198 208 210 203 174 156 145 147 154 157 152 153 157 159 163 168 176 188 200 224 287 343 358 354 346 342 339 338 343 357 358 4 4 3 358 356 353 348 346
194 165 184 224 170 196 215 198 188 171 158 150 149 150 152 156 155 159 160 167 172 172 176 183 174 146 88 45 11 353 2 6 11 15 15 16 17 19 17 15 13 2 358 354
Wind_Speed_850mb
36 24 39 44 38 34 29 29 33 22 10 15 31 32 32 31 24 25 30 36 36 37 33 40 46 48 49 48 49 50 50 48 49 52 52 50 46 46 49 48 46 44 42 42
21 41 36 32 35 28 18 25 28 8 5 8 19 29 29 33 41 42 39 37 39 37 39 43 48 53 57 54 53 51 52 52 54 53 48 48 45 46 47 48 49 46 45 44
33 10 39 33 35 34 33 28 26 15 11 9 13 35 39 41 47 44 44 45 44 43 42 46 51 57 58 62 60 57 57 56 58 56 51 49 48 51 50 52 50 48 47 46
29 17 27 27 40 41 36 18 7 13 10 13 6 11 9 21 25 28 42 44 47 44 42 42 49 55 62 62 61 62 62 62 61 57 54 54 52 50 46 47 45 45 45 46
18 16 24 37 42 38 28 22 18 11 9 8 14 10 12 12 21 23 24 26 31 35 39 42 46 52 58 60 65 64 65 67 66 62 60 59 55 50 50 48 47 46 45 46
6 1 16 23 18 25 26 19 12 7 10 14 27 18 13 13 11 17 15 10 11 18 24 38 40 42 50 57 64 66 68 70 70 67 65 62 59 58 57 53 49 49 47 47
16 11 4 5 15 10 28 31 11 11 12 15 5 10 26 7 7 13 11 7 3 7 15 18 30 51 52 58 64 69 71 72 72 72 71 66 64 62 60 58 53 51 52 51
21 16 26 24 22 21 46 38 12 14 10 15 3 15 8 3 2 2 5 3 6 7 9 12 21 31 40 48 61 69 73 74 74 72 70 68 66 66 64 61 58 55 55 52
24 19 15 8 2 17 35 29 4 10 4 2 11 12 11 8 10 13 13 15 15 13 12 8 9 18 25 33 45 57 65 66 67 67 66 66 67 67 65 64 61 60 58 56
10 10 11 6 2 6 17 18 11 6 12 10 10 11 13 22 22 15 18 18 17 16 16 16 14 10 11 13 19 29 41 49 55 62 64 64 65 65 65 65 64 61 60 60
7 2 9 11 20 30 11 15 14 9 5 6 4 8 8 32 28 23 19 16 16 15 16 19 20 17 13 9 9 15 24 31 38 44 50 56 59 62 64 65 63 62 61 62
13 7 10 23 6 6 16 31 30 13 12 5 2 3 15 29 26 25 23 18 13 13 14 17 19 19 18 16 11 8 8 12 19 26 33 41 48 53 57 60 61 63 65 65
22 10 10 6 6 3 13 19 30 21 2 13 8 3 11 27 24 21 21 13 11 13 14 14 15 17 18 17 16 14 10 4 2 8 14 22 29 37 43 48 53 58 62 65
34 11 26 26 8 16 21 31 22 35 17 11 20 12 19 25 23 20 18 13 12 13 15 14 14 15 15 15 14 12 10 7 5 3 4 8 14 20 27 32 38 45 51 58
17 14 14 22 4 7 17 32 29 39 40 28 17 17 34 39 31 28 25 20 18 16 16 16 17 18 18 17 17 15 12 9 7 6 7 10 16 21 26 31 35 39 44 49
5 3 13 6 11 2 7 16 35 38 32 38 3 14 2 34 37 29 26 25 23 20 20 21 22 23 22 21 20 19 16 14 12 12 12 13 16 20 24 29 33 39 45 50
17 11 7 37 15 5 10 26 31 30 33 40 32 18 10 32 34 39 34 32 30 27 27 24 22 19 17 15 13 12 11 11 12 13 14 17 20 24 27 31 34 38 41 44
14 15 4 6 11 15 21 9 28 37 34 38 39 18 26 31 37 36 34 42 37 35 30 25 21 16 11 9 7 7 8 11 14 18 21 25 28 30 32 34 37 39 42 44
16 8 7 9 20 8 22 17 17 22 24 29 32 19 25 37 30 12 27 31 36 37 31 23 17 12 6 2 5 8 12 15 19 22 25 28 31 34 36 37 38 40 42 44
9 23 10 14 10 23 14 15 39 12 23 35 51 36 32 42 20 17 42 46 44 37 30 22 14 7 1 3 6 9 13 16 20 23 25 28 31 34 37 40 42 43 44 45
13 6 21 16 12 12 10 16 36 21 10 30 69 62 51 29 21 49 62 47 41 34 27 20 14 10 7 7 8 11 14 16 19 21 23 26 29 33 36 39 42 44 44 44
20 18 10 7 12 19 22 23 24 4 5 9 31 60 61 39 35 63 64 53 42 33 27 20 14 11 10 11 13 14 16 17 17 20 22 26 30 33 36 39 39 41 42 42
16 17 13 19 12 6 44 2 31 10 9 6 25 41 62 60 66 66 57 47 37 29 23 18 13 10 11 13 14 15 18 19 18 18 21 24 28 31 33 34 35 37 36 36
9 3 7 5 14 8 32 24 18 10 13 21 39 55 60 67 68 62 52 43 35 26 18 11 8 6 8 11 12 13 13 15 17 18 20 23 24 25 26 29 30 32 33 33
5 20 11 7 3 1 14 33 23 23 32 46 51 56 64 68 59 53 47 37 27 18 12 7 3 2 3 5 7 9 12 14 16 16 16 19 22 24 24 25 27 25 27 29
13 11 14 12 23 15 18 51 43 47 57 61 68 63 59 53 51 43 36 29 22 15 9 8 7 4 2 3 5 10 11 12 12 13 14 17 19 21 23 23 22 23 24 26
Wind_Direction_850mb
195 205 211 207 211 226 248 221 231 223 105 237 233 245 244 201 203 222 223 221 216 216 209 204 202 206 205 208 210 212 214 214 214 215 214 217 220 224 226 230 233 237 238 238
180 223 215 222 213 222 239 221 229 101 174 231 253 251 253 244 236 225 229 224 223 220 209 202 206 208 214 216 215 217 218 218 220 223 222 222 225 230 233 236 237 239 240 241
206 217 221 218 213 211 217 227 227 250 167 226 287 271 249 238 235 229 232 232 227 219 214 205 205 212 217 217 220 222 223 222 224 224 224 224 226 230 232 236 238 239 241 243
231 210 213 199 214 211 212 212 224 174 198 246 207 285 207 222 206 224 224 226 228 226 222 214 212 212 218 224 225 224 224 226 229 228 229 232 234 238 241 245 247 247 245 246
190 193 193 213 213 211 227 165 181 177 222 299 207 255 240 162 213 207 214 223 227 228 225 219 215 222 222 226 227 229 227 229 232 231 233 234 237 240 245 244 245 245 246 246
218 50 223 219 212 203 138 134 135 161 223 247 236 227 257 202 181 161 179 199 227 225 223 219 213 220 223 225 227 229 229 232 232 234 235 236 238 240 242 247 247 249 251 251
185 185 168 208 149 155 184 170 175 207 213 238 61 224 261 183 248 282 264 275 252 199 200 215 219 218 217 222 227 229 230 230 233 233 236 237 239 242 245 249 251 253 255 257
176 205 181 186 210 193 197 191 177 197 206 212 110 225 234 23 331 283 207 172 123 127 179 212 218 217 219 221 230 230 229 228 231 234 236 238 240 244 249 251 254 255 259 261
191 188 144 184 247 189 199 216 205 108 59 195 200 243 263 159 134 139 125 125 109 93 96 122 171 201 213 225 229 229 228 228 233 237 238 238 241 244 249 253 254 256 259 261
218 161 199 121 199 259 218 165 183 227 174 220 195 257 221 179 166 151 138 122 105 93 85 85 96 133 177 203 216 221 224 229 235 241 241 240 243 246 249 251 254 257 259 261
221 32 135 154 210 184 167 189 208 227 223 253 210 234 331 172 163 154 137 120 105 91 83 83 84 86 102 132 170 199 215 224 232 239 239 240 242 246 249 252 254 257 259 261
162 110 149 198 58 11 248 213 199 201 190 233 341 262 319 151 152 146 139 127 106 98 96 89 85 88 87 89 103 132 186 216 230 238 240 243 246 250 252 254 256 258 259 261
171 179 112 172 231 217 219 206 217 219 36 193 161 165 329 140 145 148 144 129 111 105 101 96 95 91 90 86 83 80 78 75 259 257 255 256 257 259 262 263 263 264 265 266
167 171 197 202 216 162 206 208 217 213 215 170 225 147 178 170 167 164 161 145 127 122 116 110 106 101 97 94 90 83 72 61 36 6 310 288 278 273 272 271 270 268 268 267
182 200 211 207 26 314 213 200 194 211 218 214 216 204 188 184 173 169 162 152 146 139 129 129 121 111 100 94 87 78 67 56 37 5 331 303 290 285 282 281 279 277 274 274
219 239 175 186 233 246 260 238 205 220 219 233 160 239 231 172 170 168 171 163 161 154 145 135 127 119 111 102 94 84 73 59 41 23 3 339 320 308 301 296 292 288 286 283
163 139 147 231 181 327 273 227 220 224 221 223 222 216 177 170 183 183 172 169 167 163 155 148 138 127 115 101 87 72 55 37 19 4 347 333 324 317 310 306 302 298 294 290
151 134 131 147 120 230 246 223 221 224 227 220 232 183 175 184 178 168 179 168 165 167 162 155 148 136 118 96 66 33 6 349 340 335 330 326 322 321 320 318 314 310 305 300
187 128 190 196 206 298 258 208 187 187 239 226 223 201 171 137 131 144 164 167 167 167 164 157 153 149 140 67 353 340 335 330 327 324 322 322 322 322 320 318 316 314 311 308
202 165 183 174 200 212 251 226 180 150 266 204 207 200 158 156 184 174 168 173 169 167 164 162 160 162 174 322 322 321 320 320 320 318 319 319 320 321 320 319 318 316 312 310
165 139 203 180 214 268 210 155 154 186 244 224 199 197 170 189 207 167 168 163 168 165 162 163 172 189 214 245 271 286 293 299 305 307 310 312 314 315 316 317 316 317 316 314
168 170 185 171 218 252 139 145 185 257 301 251 207 192 183 184 157 160 163 162 164 166 168 177 189 207 233 257 272 284 294 303 308 310 314 318 318 318 317 316 316 316 316 319
195 197 181 203 204 104 182 83 219 291 256 157 151 166 169 160 150 156 153 158 163 170 175 182 195 226 259 284 300 309 314 318 319 318 317 319 322 324 326 329 329 329 330 335
203 178 204 137 204 193 193 224 211 242 213 173 165 163 167 151 152 153 158 161 168 173 179 194 222 263 299 315 321 324 327 329 331 334 334 336 339 344 345 347 348 347 347 349
143 154 171 272 233 198 208 210 203 174 156 145 147 154 157 152 153 157 159 163 168 176 188 200 224 287 343 358 354 346 342 339 338 343 357 358 4 4 3 358 356 353 348 346
194 165 184 224 170 196 215 198 188 171 158 150 149 150 152 156 155 159 160 167 172 172 176 183 174 146 88 45 11 353 2 6 11 15 15 16 17 19 17 15 13 2 358 354